Regional Weather Roundup
Issued by NWS Sterling, VA

Home | Current Version | Previous Version | Text Only | Print | Product List | Glossary Off
Versions: 1 2 3 4 5 6 7 8 9 10 11 12 13 14 15 16 17 18 19 20 21 22 23 24 25 26 27 28 29 30 31 32 33 34 35 36 37 38 39 40 41 42 43 44 45 46 47 48 49 50

310
ASUS41 KLWX 310710
RWRLWX

REGIONAL WEATHER ROUNDUP
NATIONAL WEATHER SERVICE BALTIMORE MD/WASHINGTON DC
300 AM EDT TUE MAY 31 2016

Note: "FAIR" indicates few or no clouds below 12,000 feet
with no significant weather and/or obstructions to visibility.
 TC=TEMPERATURE CELSIUS

 * =Non NWS site. Station does not report precipitation (e.g. rain,
    snow, etc.), thunder, or fog.

DCZ001-MDZ009-015-VAZ040>042-051-053>054-310800-
WASHINGTON METRO

CITY           SKY/WX    TMP DP  RH WIND       PRES   REMARKS
WASHINGTON NAT FAIR      70  67  90 SW8       29.95F
DULLES         CLOUDY    70  67  90 S3        29.96S
QUANTICO       CLOUDY    69  67  93 CALM      29.97S
COLLEGE PARK*  MOCLDY    66  64  94 CALM      29.95S
LEESBURG*      CLOUDY    72  72 100 S5        29.97S
MANASSAS*      FAIR      66  66 100 CALM      29.96F

$$

MDZ006>007-011-014-310800-
BALTIMORE METRO

CITY           SKY/WX    TMP DP  RH WIND       PRES   REMARKS
BWI AIRPORT    PTCLDY    68  66  93 CALM      29.95S
MD SCIENCE CTR   N/A     71  67  87 MISG      29.95S
MARTIN STATE   CLOUDY    70  70 100 CALM      29.96S
ANNAPOLIS      PTCLDY    69  67  93 CALM      29.94F
FORT MEADE*    PTCLDY    64  63  94 CALM      29.97F

$$

MDZ012-015-019>023-310800-
MARYLAND EASTERN SHORE

CITY           SKY/WX    TMP DP  RH WIND       PRES   REMARKS
OCEAN CITY     CLOUDY    67  66  97 E3        29.95S
SALISBURY      CLOUDY    67  66  97 N3        29.94F
BAY BRIDGE AP* PTCLDY    68  66  94 SE3       29.95S
CAMBRIDGE*       N/A     63  63 100 CALM      29.94F
EASTON*        CLOUDY    69  69 100 CALM      29.99S

$$

MDZ017>025-310800-
SOUTHERN MARYLAND

CITY           SKY/WX    TMP DP  RH WIND       PRES   REMARKS
PATUXENT RIVER MOCLDY    66  64  93 NW3       29.95S
ST INIGOES     MOCLDY    66  65  96 CALM      29.94F
LEONARDTOWN*   CLOUDY    66  64  94 CALM      29.97S

$$

MDZ003>005-310800-
NORTH CENTRAL MARYLAND

CITY           SKY/WX    TMP DP  RH WIND       PRES   REMARKS
FREDERICK*     CLOUDY    72  72 100 S3        29.98R
HAGERSTOWN APT CLOUDY    66  63  90 NW5       29.96S FOG
WESTMINSTER*   CLOUDY    70  66  88 CALM      29.97S

$$

MDZ501>502-310800-
WESTERN MARYLAND

CITY           SKY/WX    TMP DP  RH WIND       PRES   REMARKS
OAKLAND*       CLEAR     61  52  72 CALM      30.07S
CUMBERLAND*    CLOUDY    63  63 100 CALM      30.03R

$$

VAZ025>031-310800-
SHENANDOAH VALLEY

CITY           SKY/WX    TMP DP  RH WIND       PRES   REMARKS
WINCHESTER*    MOCLDY    63  63 100 CALM      29.97S FOG
FRONT ROYAL*   PTSUNNY   64  64 100 CALM      29.96S
LURAY*         CLOUDY    64  64 100 CALM      29.98R FOG
NEW MARKET*    CLOUDY    63  63 100 CALM      29.97R VSB 1/2
STAUNTON*      FAIR      62  62  97 CALM      30.00S
WAYNESBORO*    FAIR      62  61  95 CALM      30.00S

$$

WVZ021-048>050-054>055-310800-
EASTERN WEST VIRGINIA PANHANDLE

CITY           SKY/WX    TMP DP  RH WIND       PRES   REMARKS
MARTINSBURG    FAIR      63  63 100 CALM      29.96S
PETERSBURG*    FOG       63  63  99 CALM      30.01S VSB 1/4

$$

VAZ036>039-050-310800-
CENTRAL FOOTHILLS

CITY           SKY/WX    TMP DP  RH WIND       PRES   REMARKS
CHARLOTTESVILL FOG       65  63  93 N5        29.96S VSB 1/2
CULPEPER*      CLOUDY    70  69  98 CALM      29.97S
ORANGE*        MOCLDY    68  68 100 CALM      29.98S
GORDONSVILLE*  FAIR      67  67 100 CALM      29.96S
WARRENTON*     MOCLDY    68  63  85 CALM      29.95F HAZE

$$

VAZ055>057-310800-
NORTH AND CENTRAL PIEDMONT

CITY           SKY/WX    TMP DP  RH WIND       PRES   REMARKS
FREDERICKSBRG* CLOUDY    65  65 100 CALM      29.96R
STAFFORD*      MOCLDY    62  61  96 CALM      30.00S

$$

NCZ024-NYZ072-PAZ021-071-VAZ022-071-310800-
OTHER REGIONAL OBSERVATIONS

CITY           SKY/WX    TMP DP  RH WIND       PRES   REMARKS
NEW YORK CITY  CLOUDY    72  66  81 MISG      29.96S
PHILADELPHIA   CLOUDY    72  67  84 SW6       29.96R
PITTSBURGH     CLEAR     61  55  81 S3        29.99R
ROANOKE        FAIR      67  64  90 NE3       30.00S
RICHMOND       FOG       65  65 100 CALM      29.95S VSB 1/4
RALEIGH        FOG       70  69  97 E3        29.93F VSB 1/2

$$

ANZ530>537-310800-
MARINE OBSERVATIONS

STATION/POSITION TIME  TEMP    WIND        PRES
                       AIR SEA DIR/SP/G
                 (UTC) (F)     (DEG/KT/KT) (MB)
THOMAS PT LIGHT  0700   69 69  180/  5/  5 1015.5F
BALT KEY BRIDGE  0600   70     220/  4/  5 1014.1F
COVE POINT       0600   67     190/  5/  5 1014.7F
LEWISETTA        0600   69 71  160/  5/  6 1013.8F
SOLOMONS ISLAND  0600   68 67  160/  3/  3   N/A
PINEY POINT      0600          170/  4/  5   N/A

$$





USA.gov is the U.S. government's official web portal to all federal, state and local government web resources and services.